Weather in Shalimovo

Russia / Vologda Oblast     58°57′50″N   38°37′03″E
temp.,
°C
wind,
m/s
gust,
m/s
humid.,
%
clouds,
%
prec.,
mm/h
press.,
hPa
HPBL,
m
1 march, mon
mon100:00−5wsw0193100 0.0 102021
03:00−5wsw379699 0.1 1020241
06:00−7sw379797 0.1 1019155
09:00−3wsw499696 0.2 1018425
12:000wsw51098100 0.0 1015700
15:00+1w61398100 0.2 1013578
18:00+1wsw61497100 0.1 1009644
21:00+1w51498100 0.3 1008746
2 march, tue
tue200:00+1w6139799 0.1 1005912
03:00+1wnw6129699 0.8 1005942
06:000wnw5118794 0.1 1004971
09:00−1wnw5119090 0.2 1005951
12:00−1wnw61090100 0.2 10041041
15:00−1wnw61186100 0.4 10051344
18:00−3nw51197100 1.3 1005830
21:00−7nw5148567 2.2 1008771
3 march, wed
wed300:00−7nw5139299 0.0 1009694
03:00−8nw4139299 0.1 1011562
06:00−11wnw3109357 0.0 1011281
09:00−8wnw4119649 0.0 1011396
12:00−3wnw51092100 0.3 1010769
15:00−2wnw51095100 0.9 1009831
18:00−3wnw41094100 0.4 1008870
21:00−3w41193100 0.6 1007741
4 march, thu
thu400:00−3wsw41095100 0.1 1002562
03:00−1sw61496100 1.9 997978
06:000wsw71496100 1.8 9921116
09:00−2w7168198 3.3 9901226
12:00−3w8148667 0.1 9901372
15:00−4wnw8148683 0.5 9911449
18:00−6nw71488100 0.2 9941105
21:00−8nw51290100 0.4 998797
5 march, fri
fri500:00−10nw31095100 0.1 1001449
03:00−15nw239893 0.1 100434
06:00−16w229717 0.0 100521
09:00−13wsw259727 0.0 1006169
12:00−8wsw369482 0.1 1007391
15:00−6w368991 0.3 1008790
18:00−9w2293100 0.1 100921
21:00−12nne239776 0.1 101131